Stations météo

Publicité
Pau, France (7610): Température de l'air & dewpoint: 20.03.2017 09:00:00 - 26.03.2017 09:00:00 (CEST)Pau, France (7610): Température de l'air 5cm: 20.03.2017 09:00:00 - 26.03.2017 09:00:00 (CEST)Pau, France (7610): Température de l'air -20cm & Température de l'air -100cm: 20.03.2017 09:00:00 - 26.03.2017 09:00:00 (CEST)Pau, France (7610): Vitesse du vent & gusts: 20.03.2017 09:00:00 - 26.03.2017 09:00:00 (CEST)Pau, France (7610): Direction du vent: 20.03.2017 09:00:00 - 26.03.2017 09:00:00 (CEST)Pau, France (7610): reduced air pressure: 20.03.2017 09:00:00 - 26.03.2017 09:00:00 (CEST)Pau, France (7610): visibility: 20.03.2017 09:00:00 - 26.03.2017 09:00:00 (CEST)Pau, France (7610): Ensoleillement: 20.03.2017 09:00:00 - 26.03.2017 09:00:00 (CEST)Pau, France (7610): Quantités de précipitations: 20.03.2017 09:00:00 - 26.03.2017 09:00:00 (CEST)
Date & Time tt [°C] td [°C] tt 5cm [°C] tt -20cm [°C] tt -100cm [°C] ff [km/h] ff [knt] fx [km/h] fx [knt] dd ppp [hPa] vv [km] sd [min] rr [mm]
26.03.2017 09:00:00 4,6 3,1 2,8 10,7 11,4 6 3 16 9 ESE 1016,2 53 0 0,0
26.03.2017 08:00:00 4,6 2,6 0,1 10,7 11,3 12 7 15 8 SE 1015,1 45 0 0,0
26.03.2017 07:00:00 4,1 2,6 0,3 10,8 11,3 6 4 11 6 ESE 1015,1 28 0 0,0
26.03.2017 06:00:00 3,7 2,7 0,1 10,8 11,4 6 4 14 8 E 1014,8 20 0 0,0
26.03.2017 05:00:00 3,6 2,4 -0,6 10,8 11,3 9 5 14 8 SSE 1014,7 22 0 0,0
26.03.2017 04:00:00 4,5 3,2 -0,2 10,9 11,4 0 0 6 4 N 1015,1 22 0 0,0
26.03.2017 03:00:00 5,6 3,9 1,0 10,9 11,3 0 0 8 4 N 1015,2 24 0 0,0
26.03.2017 02:00:00 7,3 4,8 3,4 10,9 11,4 4 2 11 6 SSE 1015,1 28 0 0,0
26.03.2017 01:00:00 7,7 4,6 4,5 10,9 11,4 6 3 16 9 E 1015,0 35 0 0,0
26.03.2017 00:00:00 7,6 5,2 3,8 10,9 11,4 8 4 16 9 E 1015,1 20 0 0,0
25.03.2017 23:00:00 7,3 5,3 3,9 10,9 11,4 8 4 12 6 E 1014,5 26 0 0,0
25.03.2017 22:00:00 8,0 5,3 4,2 10,9 11,4 5 3 7 4 ENE 1013,8 30 0 0,0
25.03.2017 21:00:00 9,7 5,3 6,3 10,8 11,4 5 3 8 5 ESE 1013,0 55 0 0,0
25.03.2017 20:00:00 10,0 5,6 7,4 10,8 11,3 5 3 19 10 E 1012,0 53 8 0,0
25.03.2017 19:00:00 10,9 5,4 10,7 10,8 11,3 11 6 16 9 ENE 1011,2 58 29 0,0
25.03.2017 18:00:00 12,2 6,7 14,7 10,7 11,3 4 2 13 7 S 1010,6 58 30 0,0
25.03.2017 17:00:00 10,5 6,3 13,0 10,7 11,3 5 3 12 6 S 1010,0 57 0 0,0
25.03.2017 16:00:00 10,0 6,0 10,9 10,8 11,4 2 1 10 5 SW 1009,6 53 0 0,0
25.03.2017 15:00:00 8,7 5,6 11,2 10,7 11,3 6 3 14 8 W 1009,8 21 0 0,0
25.03.2017 14:00:00 8,0 6,3 9,0 10,8 11,4 9 5 16 9 SW 1010,1 14 0 0,4
25.03.2017 13:00:00 7,9 5,2 9,8 10,8 11,3 9 5 14 8 WSW 1009,9 56 0 0,0
25.03.2017 12:00:00 7,8 4,9 8,3 10,8 11,4 8 5 19 10 W 1010,0 55 1 0,0
25.03.2017 11:00:00 6,4 4,7 6,8 10,8 11,4 8 4 12 6 SW 1010,5 33 0 0,6
25.03.2017 10:00:00 5,9 5,0 6,0 10,8 11,4 6 3 10 5 WSW 1011,0 10 0 0,6
25.03.2017 09:00:00 5,8 5,1 5,7 10,9 11,4 6 3 13 7 WSW 1010,9 7 0 0,6
25.03.2017 08:00:00 5,7 4,8 5,6 10,9 11,4 9 5 13 7 NW 1011,6 8 0 0,4
25.03.2017 07:00:00 5,8 4,8 5,5 10,9 11,4 6 3 9 5 N 1012,0 8 0 0,2
25.03.2017 06:00:00 5,9 4,7 5,5 10,9 11,4 5 3 9 5 NNE 1012,7 8 0 0,6
25.03.2017 05:00:00 6,1 4,6 5,7 11,0 11,4 4 2 6 3 NNW 1013,3 12 0 0,0
25.03.2017 04:00:00 6,2 4,8 5,7 11,0 11,3 0 0 5 3 N 1014,4 20 0 0,2
25.03.2017 03:00:00 6,4 4,9 5,7 11,0 11,4 0 0 6 3 N 1015,3 26 0 0,0
25.03.2017 02:00:00 6,5 5,0 5,8 11,0 11,4 4 2 11 6 SE 1015,7 21 0 0,0
25.03.2017 01:00:00 6,6 4,6 5,8 11,0 11,4 8 4 14 7 ESE 1016,6 21 0 0,2
25.03.2017 00:00:00 7,0 4,0 5,8 11,0 11,4 12 6 25 13 SE 1016,7 18 0 0,4
24.03.2017 23:00:00 8,0 3,1 6,9 11,0 11,4 16 9 24 13 SE 1017,3 44 0 0,0
24.03.2017 22:00:00 9,2 2,5 6,7 11,0 11,4 16 9 30 16 E 1017,3 35 0 0,0
24.03.2017 21:00:00 10,3 5,7 9,1 10,9 11,4 9 5 19 10 E 1017,2 29 0 0,0
24.03.2017 20:00:00 10,7 5,4 9,5 10,9 11,4 10 6 18 10 ENE 1016,5 35 0 0,0
24.03.2017 19:00:00 11,5 4,7 11,1 10,8 11,4 11 6 22 12 NE 1016,2 50 0 0,0
24.03.2017 18:00:00 12,4 2,8 13,5 10,8 11,4 10 6 19 10 NNE 1016,0 58 0 0,0
24.03.2017 17:00:00 12,6 2,7 15,1 10,7 11,3 6 4 15 8 N 1016,2 53 0 0,0
24.03.2017 16:00:00 12,5 3,7 16,7 10,7 11,4 8 4 14 8 NW 1015,8 57 20 0,0
24.03.2017 15:00:00 12,6 3,3 20,9 10,7 11,4 10 6 19 10 NNW 1016,2 48 58 0,0
24.03.2017 14:00:00 11,8 4,3 18,2 10,7 11,4 11 6 18 10 NNW 1016,3 49 60 0,0
24.03.2017 13:00:00 10,6 2,9 21,6 10,7 11,4 7 4 13 7 NNW 1016,9 44 60 0,0
24.03.2017 12:00:00 8,9 3,7 13,5 10,7 11,4 4 2 9 5 NW 1017,1 20 35 0,0
24.03.2017 11:00:00 7,1 2,8 8,6 10,8 11,4 4 2 6 3 WNW 1016,6 20 26 0,0
24.03.2017 10:00:00 4,3 2,0 0,9 10,9 11,4 0 0 7 4 N 1016,3 27 19 0,0
24.03.2017 09:00:00 1,9 0,7 -1,2 10,9 11,4 6 3 8 5 ENE 1015,7 20 2 0,0
24.03.2017 08:00:00 2,2 0,9 -1,8 11,0 11,4 7 4 9 5 SSE 1015,2 17 0 0,0
24.03.2017 07:00:00 2,3 1,0 -2,3 11,0 11,4 3 2 5 3 S 1014,7 16 0 0,0
24.03.2017 06:00:00 2,8 1,3 -1,5 11,1 11,4 3 1 9 5 E 1014,6 18 0 0,0
24.03.2017 05:00:00 3,9 1,8 -1,5 11,1 11,4 6 3 13 7 E 1014,0 26 0 0,0
24.03.2017 04:00:00 4,3 2,2 -0,1 11,1 11,4 9 5 14 7 E 1014,3 24 0 0,0
24.03.2017 03:00:00 4,5 2,2 -0,3 11,2 11,4 9 5 13 7 E 1014,3 28 0 0,0
24.03.2017 02:00:00 5,0 2,5 -0,4 11,2 11,4 3 1 10 5 E 1014,0 36 0 0,0
24.03.2017 01:00:00 6,6 2,5 3,1 11,2 11,4 6 4 17 9 ESE 1013,8 46 0 0,0
24.03.2017 00:00:00 7,5 2,4 4,5 11,2 11,4 12 6 23 12 E 1013,4 60 0 0,0
23.03.2017 23:00:00 7,9 1,9 2,1 11,2 11,4 8 4 16 9 E 1012,7 51 0 0,0
23.03.2017 22:00:00 9,0 1,6 4,1 11,1 11,4 7 4 12 7 E 1012,1 60 0 0,0
23.03.2017 21:00:00 9,6 0,5 4,9 11,1 11,4 6 3 12 6 NE 1011,1 60 0 0,0
23.03.2017 20:00:00 10,5 0,2 6,6 11,0 11,4 10 5 18 10 ENE 1010,2 60 44 0,0
23.03.2017 19:00:00 12,2 -0,4 12,2 11,0 11,4 8 5 14 7 N 1009,5 59 60 0,0
23.03.2017 18:00:00 12,6 -0,7 12,6 10,9 11,4 10 6 20 11 N 1009,0 52 54 0,0
23.03.2017 17:00:00 12,6 1,3 15,9 10,8 11,4 8 5 18 10 NNE 1008,9 46 48 0,0
23.03.2017 16:00:00 12,9 -0,1 12,6 10,8 11,4 11 6 22 12 N 1008,9 60 39 0,0
23.03.2017 15:00:00 11,1 -0,4 14,4 10,8 11,4 5 3 26 14 N 1009,2 60 46 0,0
23.03.2017 14:00:00 11,6 -0,3 18,2 10,8 11,4 8 5 26 14 NNW 1009,3 60 57 0,0
23.03.2017 13:00:00 11,0 -0,8 17,8 10,7 11,4 19 11 31 17 W 1009,6 60 60 0,0
23.03.2017 12:00:00 9,9 1,5 18,3 10,8 11,4 16 9 24 13 WNW 1009,6 60 60 0,0
23.03.2017 11:00:00 8,1 3,7 9,6 10,8 11,4 7 4 13 7 NW 1010,0 55 23 0,0
23.03.2017 10:00:00 6,1 4,3 4,3 10,9 11,4 4 2 8 4 SE 1009,8 31 7 0,0
23.03.2017 09:00:00 4,7 2,7 3,7 10,9 11,4 5 3 9 5 SSE 1009,6 60 0 0,0
23.03.2017 08:00:00 4,5 3,0 3,8 11,0 11,4 6 3 14 8 S 1009,3 45 0 0,0
23.03.2017 07:00:00 4,9 3,4 4,1 11,0 11,4 9 5 21 12 W 1009,1 42 0 0,0
23.03.2017 06:00:00 4,9 3,2 4,2 11,1 11,4 11 6 29 16 WNW 1008,9 60 0 0,0
23.03.2017 05:00:00 5,4 3,9 5,1 11,1 11,4 15 8 22 12 WNW 1008,9 44 0 0,0
23.03.2017 04:00:00 5,2 4,0 4,5 11,2 11,4 5 3 10 5 WSW 1009,1 21 0 0,0
23.03.2017 03:00:00 4,7 3,7 3,6 11,2 11,4 3 2 6 3 SW 1009,3 56 0 0,0
23.03.2017 02:00:00 4,5 3,5 3,6 11,3 11,4 3 2 10 5 SSE 1009,5 54 0 0,0
23.03.2017 01:00:00 4,4 3,2 3,3 11,3 11,4 8 4 16 8 SE 1009,6 52 0 0,0
23.03.2017 00:00:00 4,6 3,3 4,1 11,3 11,4 9 5 17 9 ESE 1009,3 48 0 1,6
22.03.2017 23:00:00 4,9 3,1 4,0 11,3 11,4 5 3 39 21 WSW 1010,1 5 0 4,9
22.03.2017 22:00:00 5,8 4,4 5,4 11,3 11,4 14 8 27 15 WNW 1010,5 4,0 0 1,8
22.03.2017 21:00:00 5,9 4,7 5,6 11,3 11,4 16 9 38 20 NW 1009,7 14 0 0,8
22.03.2017 20:00:00 6,3 4,3 6,1 11,2 11,4 32 18 59 32 NW 1008,9 60 1 0,2
22.03.2017 19:00:00 13,4 5,0 12,7 11,2 11,3 5 3 14 7 E 1006,2 60 5 0,0
22.03.2017 18:00:00 13,9 3,9 15,1 11,1 11,4 9 5 18 10 SE 1006,6 54 38 0,0
22.03.2017 17:00:00 13,9 4,5 15,6 11,1 11,4 4 2 19 10 SSW 1007,6 57 14 0,0
22.03.2017 16:00:00 12,9 5,1 14,2 11,1 11,4 11 6 32 18 WNW 1008,6 60 0 0,0
22.03.2017 15:00:00 13,4 5,3 16,2 11,1 11,4 23 12 35 19 WNW 1009,5 48 8 0,0
22.03.2017 14:00:00 13,0 4,9 14,8 11,1 11,4 9 5 24 13 WNW 1010,2 57 0 0,0
22.03.2017 13:00:00 13,3 5,7 15,1 11,1 11,4 6 3 16 9 W 1010,5 40 25 0,0
22.03.2017 12:00:00 11,6 6,5 11,7 11,1 11,4 0 0 11 6 N 1010,7 53 11 0,0
22.03.2017 11:00:00 9,2 5,9 9,7 11,2 11,4 5 3 15 8 S 1011,0 50 5 0,0
22.03.2017 10:00:00 7,5 5,5 6,1 11,3 11,4 8 4 16 9 SSE 1010,9 47 7 0,0
22.03.2017 09:00:00 5,4 4,7 0,4 11,3 11,3 8 5 16 9 ESE 1011,3 43 15 0,0
22.03.2017 08:00:00 3,7 3,0 0,3 11,4 11,4 6 4 14 7 ESE 1012,1 20 0 0,0
22.03.2017 07:00:00 4,5 4,1 0,0 11,4 11,4 11 6 16 9 SE 1012,5 18 0 0,0
22.03.2017 06:00:00 4,4 3,8 0,2 11,5 11,3 4 2 15 8 ESE 1014,0 5 0 0,0
22.03.2017 05:00:00 4,9 4,5 1,8 11,5 11,4 9 5 13 7 ESE 1014,4 0,8 0 0,0
22.03.2017 04:00:00 4,5 3,9 1,9 11,5 11,4 3 2 5 3 ESE 1016,0 0,2 0 0,0
22.03.2017 03:00:00 5,3 4,7 0,5 11,6 11,3 0 0 5 3 N 1016,6 0,1 0 0,0
22.03.2017 02:00:00 5,4 4,7 1,3 11,6 11,4 0 0 4 2 N 1017,4 0,2 0 0,0
22.03.2017 01:00:00 6,1 5,2 1,8 11,6 11,4 2 1 4 2 NNW 1018,1 0,3 0 0,0
22.03.2017 00:00:00 7,1 6,0 5,0 11,7 11,4 4 2 11 6 S 1018,4 12 0 0,0
21.03.2017 23:00:00 7,5 6,6 5,7 11,7 11,4 5 3 9 5 S 1018,9 15 0 0,0
21.03.2017 22:00:00 7,8 6,6 6,9 11,7 11,4 9 5 12 6 S 1018,7 26 0 0,0
21.03.2017 21:00:00 8,0 7,1 7,7 11,6 11,3 5 3 7 4 W 1019,0 18 0 0,0
21.03.2017 20:00:00 8,4 7,2 8,1 11,7 11,4 5 3 12 7 W 1019,0 4,4 0 0,0
21.03.2017 19:00:00 8,4 7,0 8,2 11,7 11,3 9 5 27 15 N 1018,5 19 0 0,4
21.03.2017 18:00:00 8,5 7,0 8,2 11,6 11,3 13 7 30 16 N 1018,2 7 0 0,8
21.03.2017 17:00:00 9,7 8,3 9,2 11,6 11,3 21 11 36 20 NW 1017,8 46 0 0,2
21.03.2017 16:00:00 9,2 8,1 9,3 11,6 11,3 28 15 44 24 NW 1017,7 5 0 1,0
21.03.2017 15:00:00 12,3 8,4 13,4 11,6 11,3 19 10 30 16 W 1016,6 43 1 0,0
21.03.2017 14:00:00 12,7 7,8 14,1 11,6 11,3 15 8 29 16 W 1016,6 43 0 0,0
21.03.2017 13:00:00 13,1 6,0 15,9 11,6 11,3 17 9 29 16 W 1016,7 55 0 0,0
21.03.2017 12:00:00 12,7 4,9 13,0 11,6 11,3 14 8 24 13 WSW 1017,1 53 1 0,0
21.03.2017 11:00:00 11,5 5,8 12,4 11,6 11,3 14 8 22 12 WSW 1017,0 39 0 0,0
21.03.2017 10:00:00 10,5 6,3 9,4 11,7 11,3 10 6 19 10 S 1016,6 26 0 0,0
21.03.2017 09:00:00 9,4 6,8 8,5 11,7 11,3 6 3 8 4 SSE 1016,9 17 0 0,0
21.03.2017 08:00:00 9,2 6,6 8,4 11,7 11,3 5 3 6 4 SSE 1016,8 17 0 0,0
21.03.2017 07:00:00 9,0 7,0 8,3 11,7 11,3 4 2 8 4 SE 1016,9 15 0 0,0
21.03.2017 06:00:00 9,1 7,0 8,5 11,8 11,3 5 3 11 6 SSE 1017,0 15 0 0,0
21.03.2017 05:00:00 9,1 7,2 8,4 11,8 11,3 7 4 11 6 S 1017,2 17 0 0,0
21.03.2017 04:00:00 8,9 7,0 8,3 11,8 11,3 3 1 7 4 SW 1018,2 18 0 0,0
21.03.2017 03:00:00 9,0 7,0 8,4 11,8 11,3 3 2 6 3 S 1018,6 19 0 0,0
21.03.2017 02:00:00 9,0 7,0 8,5 11,8 11,3 4 2 9 5 SSW 1019,0 18 0 0,0
21.03.2017 01:00:00 9,1 7,0 8,5 11,8 11,3 2 1 15 8 W 1019,3 19 0 0,0
21.03.2017 00:00:00 9,6 7,2 8,9 11,8 11,3 9 5 11 6 WNW 1019,4 19 0 0,0
20.03.2017 23:00:00 9,6 7,0 9,1 11,8 11,3 9 5 18 10 NW 1019,2 26 0 0,0
20.03.2017 22:00:00 9,9 7,5 9,5 11,8 11,3 11 6 16 9 NW 1019,2 22 0 0,0
20.03.2017 21:00:00 10,1 7,9 9,7 11,8 11,3 13 7 18 10 NW 1018,8 20 0 0,0
20.03.2017 20:00:00 10,6 7,7 10,0 11,8 11,3 9 5 22 12 WNW 1018,4 18 0 0,0
20.03.2017 19:00:00 11,1 8,0 10,9 11,8 11,3 16 9 23 13 NNW 1018,0 18 0 0,0
20.03.2017 18:00:00 11,8 8,3 12,0 11,7 11,3 15 8 20 11 NW 1017,4 19 0 0,0
20.03.2017 17:00:00 12,3 8,2 12,8 11,7 11,3 9 5 13 7 N 1017,3 21 0 0,0
20.03.2017 16:00:00 12,3 8,0 13,7 11,7 11,3 9 5 15 8 NW 1017,2 27 0 0,0
20.03.2017 15:00:00 12,6 7,9 15,6 11,7 11,3 6 3 13 7 WNW 1017,3 31 0 0,0
20.03.2017 14:00:00 12,4 7,7 15,6 11,7 11,3 4 2 10 5 N 1017,3 35 0 0,0
20.03.2017 13:00:00 12,1 7,8 15,8 11,7 11,3 5 3 10 6 NNE 1017,4 20 0 0,0
20.03.2017 12:00:00 11,3 8,0 12,5 11,7 11,3 4 2 10 5 ESE 1017,6 30 0 0,0
20.03.2017 11:00:00 10,1 7,7 10,5 11,7 11,3 4 2 8 4 E 1017,9 27 0 0,0
20.03.2017 10:00:00 9,2 7,6 9,0 11,8 11,3 4 2 8 4 E 1018,0 20 0 0,0
20.03.2017 09:00:00 - - - - - - - - - - - - - -

tt = Température de l'air
td = dewpoint
tt 5cm = Température de l'air 5cm
tt -20cm = Température de l'air -20cm
tt -100cm = Température de l'air -100cm
ff = Vitesse du vent
fx = gusts
dd = Direction du vent
ppp = reduced air pressure
vv = visibility
sd = Ensoleillement
rr = Quantités de précipitations

stations d'obs. à proximité